sat.trackr.live / text

‹ back to catalog

STARLINK-31579

NORAD 59267 · 2024-050P

PAYLOAD ACTIVE UNKNOWN

§ Identity

Operator
Country
US
Launch date
2024-03-19
Launch site
AFWTR
Launch vehicle
Mass (kg)
RCS (m²)

Purposes: comms

External: N2YO · Heavens-Above · Gunter

§ Orbital elements

Epoch: 2026-09-20T22:45:41.461920Z

Period
93.85 min
Inclination
53.1624°
Eccentricity
0.0001429
Mean motion
15.34384528 rev/d
Perigee alt
461.8 km
Apogee alt
463.7 km
Semi-major
6,840.9 km
B*
-7.4410e-5
RAAN
353.3248°
Arg perigee
87.5808°
Mean anomaly
272.5358°
Rev number
14,045

§ Raw data

STARLINK-315791 59267U 24050P   26263.94839655 -.00002888  00000+0 -74410-4 0  99952 59267  53.1624 353.3248 0001429  87.5808 272.5358 15.34384528140451

JSON: /api/v1/satellites/59267 · /tle

For live sub-satellite position, see the globe view (requires WebGL).

§ Visibility from observer

Set your observer location to see the next 7 days of passes ≥ 10°. The values pass through the URL so the page stays shareable.

No JS? Fill the form by hand. The geolocation button needs JavaScript.